ショーマス彗星

24P/Schaumasse (2026)

English version
Home page
Updated on August 9, 2026

---------------------------------------------------------------------

・ プロフィール

・ 写真集

・ 軌道要素

Epoch 2026 June 9.0 TT = JDT 2461200.5
T 2026 Jan. 8.34154 TT                                  Pike
q   1.1839956            (2000.0)            P               Q
n   0.12059026     Peri.   58.48656     -0.71168043     -0.67482850
a   4.0575252      Node    78.26948     +0.55775967     -0.71175067
e   0.7081976      Incl.   11.50196     +0.42710083     -0.19498070
P   8.17
From 3198 observations 2017 July 24-2026 June 20, mean residual 0".6.
     Nongravitational parameters A1 = +0.10, A2 = -0.0006.

・ 星図

・ 光度変化

        m1 = 12.5 + 5 logΔ + 17.0 log r  [   ,-90]  (              〜2025年10月10日)
        m1 =  6.5 + 5 logΔ + 45.0 log r  [-90,  0]  (2025年10月10日〜2026年 1月 8日)
        m1 =  8.3 + 5 logΔ + 20.0 log r  [  0,   ]  (2026年 1月 8日〜              )

---------------------------------------------------------------------

軌道要素はM.P.E.C. 2026-N12に掲載されたものです。
星図はステラナビゲータ Ver.10 (アストロアーツ) で作成したものです。
光度グラフはComet for Windowsで作成したものです。

---------------------------------------------------------------------

Copyright(C) Seiichi Yoshida (comet@aerith.net). All rights reserved.